sat.trackr.live / text

‹ back to catalog

STARLINK-37744

NORAD 69347 · 2026-122U

PAYLOAD ACTIVE UNKNOWN

§ Identity

Operator
Country
US
Launch date
2026-06-03
Launch site
AFWTR
Launch vehicle
Mass (kg)
RCS (m²)

Purposes: comms

External: N2YO · Heavens-Above · Gunter

§ Orbital elements

Epoch: 2026-09-20T01:20:19.620096Z

Period
93.91 min
Inclination
97.2841°
Eccentricity
0.0000102
Mean motion
15.33455214 rev/d
Perigee alt
465.4 km
Apogee alt
465.6 km
Semi-major
6,843.6 km
B*
5.1213e-4
RAAN
291.7166°
Arg perigee
217.1278°
Mean anomaly
142.9958°
Rev number
1,673

§ Raw data

STARLINK-377441 69347U 26122U   26263.05578264  .00016500  00000+0  51213-3 0  99942 69347  97.2841 291.7166 0000102 217.1278 142.9958 15.33455214 16733

JSON: /api/v1/satellites/69347 · /tle

For live sub-satellite position, see the globe view (requires WebGL).

§ Visibility from observer

Set your observer location to see the next 7 days of passes ≥ 10°. The values pass through the URL so the page stays shareable.

No JS? Fill the form by hand. The geolocation button needs JavaScript.